Location: Saint-Palais-sur-Mer
(45.6429°N, 1.0859°W)
Time: 18:36:07
(UTC+02:00)

BlueWalker 3 - Pass Details

Date: 19 May 2026
Orbit: 447 x 457 km, 53.2° (Epoch: 5 June)

Event Time Altitude Azimuth Distance (km) Brightness Sun altitude
Rises 03:58:04 0° 294° (WNW) 2,447 5.4 -19.4°
Reaches altitude 10° 04:00:29 10° 309° (NW) 1,576 4.6 -19.2°
Maximum altitude 04:03:25 24° 5° (N) 981 4.1 -18.9°
Drops below altitude 10° 04:06:21 10° 61° (ENE) 1,576 5.3 -18.7°
Sets 04:08:46 0° 76° (ENE) 2,449 6.1 -18.5°
